DUZEAR1 KROA-KHSP

Flight info

Callsign DUZEAR1
Flight time N/A
Altitude 7000
Route KROA/06 N0249F070 SCUTA3 SCUTA DCT HOBOS DCT KHSP/25
Aircraft PC12/L-SDE2FGIRWY/SB1

Departure

Time 2026-05-08 20:17
Airport Roanoke–Blacksburg Regional Airport (KROA)

Arrival

Time N/A
Airport Ingalls Field (KHSP)
Time Latitude Longitude Altitude Speed Heading
2026-05-08 20:05 37.32323 -79.97349 1149 ft 0 kts 204°
2026-05-08 20:13 37.32318 -79.97351 1149 ft 5 kts 203°
2026-05-08 20:14 37.32295 -79.97417 1149 ft 16 kts 323°
2026-05-08 20:14 37.32379 -79.97484 1149 ft 16 kts 328°
2026-05-08 20:14 37.32465 -79.97559 1149 ft 9 kts 272°
2026-05-08 20:14 37.32403 -79.97692 1149 ft 26 kts 238°
2026-05-08 20:15 37.32313 -79.97873 1149 ft 26 kts 241°
2026-05-08 20:15 37.32240 -79.98059 1149 ft 11 kts 247°
2026-05-08 20:15 37.32199 -79.98162 1149 ft 18 kts 248°
2026-05-08 20:15 37.32166 -79.98316 1149 ft 16 kts 304°
2026-05-08 20:16 37.32263 -79.98342 1149 ft 20 kts 40°
2026-05-08 20:16 37.32447 -79.98069 1151 ft 74 kts 50°
2026-05-08 20:16 37.32897 -79.97402 1334 ft 116 kts 51°
2026-05-08 20:16 37.33477 -79.96502 1751 ft 142 kts 55°
2026-05-08 20:17 37.34054 -79.95494 2408 ft 142 kts 59°
2026-05-08 20:17 37.34620 -79.94470 3092 ft 142 kts 59°
2026-05-08 20:17 37.35185 -79.93438 3911 ft 143 kts 58°
2026-05-08 20:17 37.35768 -79.92347 4664 ft 155 kts 57°
2026-05-08 20:18 37.36426 -79.91256 5582 ft 158 kts 40°
2026-05-08 20:18 37.37394 -79.90610 6424 ft 164 kts 12°
2026-05-08 20:18 37.38577 -79.90592 6930 ft 182 kts 345°
2026-05-08 20:18 37.39923 -79.90980 7023 ft 215 kts 344°
2026-05-08 20:19 37.41482 -79.91409 7013 ft 240 kts 346°
2026-05-08 20:19 37.43150 -79.91850 7011 ft 248 kts 345°
2026-05-08 20:19 37.44843 -79.92301 7003 ft 249 kts 346°
2026-05-08 20:19 37.46572 -79.92455 7003 ft 252 kts
2026-05-08 20:20 37.48290 -79.91966 7005 ft 256 kts 18°
2026-05-08 20:20 37.49847 -79.90871 7001 ft 259 kts 36°
2026-05-08 20:20 37.51228 -79.89418 6999 ft 258 kts 38°
2026-05-08 20:20 37.52600 -79.87990 7001 ft 260 kts 38°
2026-05-08 20:21 37.53972 -79.86510 7000 ft 259 kts 43°